Wind_Speed
18 17 17 19 20 22 25 28 30 31 34 36 39 43 46 49 53 56 59 61 63 64 64 63 64 65 66 66 67 68 69 70 70 68 67 65 63 62 61 61 61 60 60 60
21 21 21 20 22 24 26 29 31 33 34 37 40 43 46 50 53 56 59 62 64 66 66 65 64 65 66 66 66 67 68 69 69 67 66 64 63 61 60 59 59 59 59 59
24 24 24 23 24 26 27 30 32 34 36 38 40 43 47 49 52 56 59 62 64 66 68 67 66 66 66 66 66 67 68 68 68 67 65 64 62 60 59 58 58 58 57 57
29 28 27 26 27 29 29 31 33 35 37 39 41 43 47 50 52 56 59 62 64 66 68 68 67 66 66 66 66 66 67 68 67 66 65 63 61 60 59 58 57 56 56 56
33 33 31 29 30 32 32 31 34 36 38 40 42 44 46 49 52 55 58 61 64 66 68 69 68 67 66 66 65 66 66 67 67 65 64 62 60 59 58 57 56 55 55 54
37 37 35 32 34 35 35 35 35 37 39 42 44 46 48 50 52 55 58 61 63 66 68 69 69 67 66 66 65 65 66 66 67 65 63 61 60 58 57 56 56 55 54 53
39 40 37 35 36 37 37 38 39 40 41 43 45 47 49 50 52 54 57 60 63 65 67 68 69 68 66 66 65 64 65 66 66 65 62 61 59 57 56 55 55 54 53 52
41 41 38 37 37 39 40 40 40 42 43 44 45 47 48 50 52 54 56 59 62 64 66 67 69 68 67 66 64 64 64 65 65 65 62 60 58 56 55 54 53 52 51 50
43 40 37 37 39 41 43 42 42 43 44 45 46 47 48 49 51 53 55 58 61 63 65 66 68 68 67 66 64 63 63 64 64 64 63 60 57 55 54 53 52 51 49 48
44 38 35 37 40 42 44 44 44 45 45 46 47 48 48 49 50 52 54 57 59 62 64 65 66 68 67 65 64 63 62 63 63 63 63 60 57 54 53 51 50 49 49 48
43 36 34 37 39 41 43 45 46 46 46 47 48 48 49 48 49 51 53 55 58 60 62 64 65 66 67 65 64 62 61 61 62 62 62 60 58 54 52 51 49 48 48 47
43 38 40 39 38 40 43 44 46 47 47 47 49 49 49 48 49 51 52 54 56 59 61 62 64 65 66 65 63 61 60 60 61 61 61 59 56 54 52 50 49 48 47 47
47 45 45 44 41 42 45 45 46 47 48 49 49 49 49 48 49 51 52 54 55 58 59 61 62 63 64 64 63 61 59 59 59 60 60 58 55 52 51 50 49 47 46 45
54 54 53 49 48 47 48 47 48 49 49 49 50 50 50 50 50 51 52 53 54 56 58 59 60 62 63 63 62 60 58 58 58 58 59 58 55 52 49 47 46 46 45 44
62 62 61 58 55 53 52 52 52 51 50 51 51 52 52 52 52 52 53 53 54 55 56 57 58 60 61 62 61 59 57 56 57 57 58 57 55 52 49 46 45 44 43 43
69 69 68 66 62 59 57 57 57 56 54 54 54 54 55 54 54 53 53 53 53 53 54 55 56 58 59 60 60 58 56 55 55 56 56 56 55 52 49 46 43 42 41 41
72 71 71 70 68 65 63 61 60 60 58 57 57 58 58 57 56 55 54 53 52 52 53 53 54 56 57 58 58 56 54 53 53 54 55 55 54 52 49 45 43 41 40 39
70 70 69 69 68 67 65 63 62 61 60 60 60 60 60 59 58 56 55 53 51 51 51 51 52 54 55 57 56 55 53 51 51 52 53 54 53 52 49 45 42 40 39 39
65 65 65 65 65 65 65 64 63 62 61 61 60 60 60 59 58 57 55 53 50 49 49 49 50 52 53 55 54 53 51 50 49 50 51 52 52 51 49 45 41 39 38 38
62 63 63 63 63 63 63 62 62 62 62 62 61 60 60 59 58 57 54 52 50 48 47 47 48 50 51 52 52 51 49 48 47 48 49 50 51 50 48 45 41 39 37 36
61 61 61 62 62 61 61 61 60 59 58 59 59 59 59 58 58 56 53 51 50 47 45 45 46 48 49 50 49 48 47 45 45 46 47 49 49 49 48 45 41 38 37 35
64 65 65 64 63 62 61 60 58 57 56 55 55 57 57 57 56 55 53 51 49 46 43 43 44 46 47 47 46 46 45 43 43 44 45 47 48 48 47 44 41 38 36 34
65 66 67 67 66 64 62 60 57 55 54 53 53 53 55 56 55 54 52 50 48 43 41 41 41 43 44 44 44 43 42 41 41 41 43 45 46 47 46 44 41 37 35 33
66 65 65 66 65 64 62 60 57 54 53 51 51 51 52 54 53 51 50 48 44 40 39 38 39 40 42 41 41 40 40 39 39 39 41 43 44 45 45 44 40 37 35 33
66 65 63 62 61 60 59 56 54 53 51 49 49 49 50 51 50 49 47 44 41 38 37 36 36 38 39 39 38 38 38 37 37 37 39 40 42 43 44 43 40 37 34 32
66 64 60 58 56 54 53 52 51 50 50 50 50 49 49 49 48 47 44 41 38 37 36 34 34 36 36 36 35 35 35 35 35 35 37 38 40 42 42 42 40 36 34 31
63 60 57 55 54 51 50 50 50 50 50 50 50 49 48 48 46 44 41 39 37 35 34 33 32 34 34 33 33 33 33 33 33 34 35 36 38 40 41 41 39 36 33 31
Wind_Direction
283 292 302 313 321 328 331 335 339 342 345 348 349 351 352 353 353 353 353 353 353 351 349 347 346 346 346 346 346 347 348 349 349 350 351 352 353 354 355 356 358 359 1 2
279 287 294 304 311 317 323 327 332 335 340 343 346 347 349 350 351 351 352 352 352 352 350 348 347 346 347 347 347 348 349 350 350 351 352 353 354 355 356 358 359 0 2 3
275 280 287 295 302 309 315 320 325 330 334 338 342 344 346 348 349 350 350 351 351 351 351 349 348 347 347 348 348 349 350 350 351 352 353 354 354 356 357 359 360 1 3 4
275 278 282 291 296 302 309 315 319 323 328 333 337 341 342 345 346 348 348 349 349 350 350 350 349 348 347 348 349 349 350 351 352 353 354 354 355 356 358 359 1 2 3 5
275 278 282 287 292 298 304 310 313 318 323 327 331 336 339 341 344 345 346 347 348 349 349 350 349 348 348 348 349 350 351 352 353 353 354 355 355 356 358 360 1 3 5 6
274 277 282 288 291 295 299 303 308 313 318 323 327 331 336 338 341 343 344 345 346 347 348 349 349 348 348 348 349 350 351 352 353 354 354 355 356 356 358 360 1 3 5 7
273 276 282 288 290 293 296 301 306 310 314 319 323 327 331 334 337 340 341 343 344 346 347 348 349 348 347 348 349 349 351 352 353 354 355 355 356 357 358 360 1 3 4 7
270 274 281 284 286 289 293 297 301 305 310 314 318 322 327 330 334 337 339 341 342 344 345 346 348 348 347 347 348 349 350 352 353 354 355 355 356 357 359 0 1 3 4 6
270 275 279 282 284 287 290 294 297 301 305 309 314 318 322 326 330 333 336 338 340 342 344 345 346 348 347 347 348 349 350 351 352 353 354 355 357 358 359 0 1 3 3 5
271 274 278 279 280 283 286 290 293 297 301 305 309 314 318 323 326 330 333 335 337 340 342 343 345 347 347 346 347 348 349 350 352 353 354 355 356 358 359 0 1 2 4 5
272 275 274 273 277 280 283 287 290 294 297 301 305 309 314 318 322 326 329 332 334 337 339 341 343 345 346 346 346 347 348 350 351 352 353 354 355 357 358 360 1 3 4 6
273 274 273 271 274 276 278 281 285 289 292 296 301 305 309 314 318 322 325 329 331 334 337 339 341 343 345 345 345 346 347 349 350 351 353 354 354 355 357 359 1 2 4 5
271 271 271 271 271 273 275 278 281 284 288 292 296 300 305 309 314 317 321 325 328 331 334 337 339 341 343 344 344 345 346 348 349 351 352 353 354 355 356 357 359 1 3 5
269 269 269 267 267 269 272 274 277 280 283 288 292 296 300 305 309 313 317 321 325 328 331 334 337 339 341 343 343 344 345 347 348 350 351 352 354 355 356 357 358 360 2 4
270 270 270 268 267 267 269 271 274 277 281 284 288 292 296 300 304 309 312 317 321 325 328 331 335 337 339 341 342 342 344 345 347 348 350 351 353 354 355 356 358 359 0 2
271 270 270 270 269 268 268 270 272 274 276 279 283 287 290 295 299 304 308 312 317 321 325 328 332 335 337 339 340 341 342 344 345 347 348 350 352 353 354 356 357 358 360 1
272 271 271 271 270 269 268 269 270 272 274 276 279 282 285 290 294 298 303 307 312 317 321 325 328 332 334 337 339 339 341 342 344 345 347 349 350 352 353 355 356 357 359 0
272 273 273 273 273 272 270 269 269 270 271 273 275 278 281 286 290 294 298 303 307 312 317 321 325 329 332 334 337 338 339 341 342 344 346 347 349 351 352 353 355 356 357 359
272 272 273 273 273 273 272 270 269 268 268 269 271 274 278 281 285 289 293 298 302 307 313 318 321 326 329 332 334 336 337 339 341 342 344 346 348 350 351 352 353 355 356 358
276 275 274 273 273 273 273 272 271 270 269 269 270 272 275 277 280 283 288 293 297 303 309 313 317 322 327 329 332 334 335 337 339 341 343 345 347 349 350 352 352 353 355 357
280 279 278 277 275 274 273 272 271 270 269 268 268 269 271 273 276 279 283 287 292 298 304 308 313 319 324 327 330 332 333 335 337 339 341 343 346 348 349 350 351 352 353 355
283 282 281 280 279 276 274 273 271 269 268 266 266 266 267 269 271 274 278 282 288 294 299 304 309 315 321 325 328 329 331 333 335 337 339 342 344 346 348 349 350 351 352 354
284 283 282 281 280 278 275 273 270 268 266 265 263 262 263 264 267 270 274 278 283 289 294 299 306 312 318 322 325 327 329 331 333 335 338 340 343 345 347 348 349 350 351 352
285 284 282 280 279 277 275 271 268 265 263 262 260 259 259 261 263 266 269 274 279 284 289 295 302 309 315 320 323 325 327 329 331 333 336 339 341 344 346 347 349 349 350 351
283 282 280 279 277 274 271 268 264 261 258 256 255 254 255 257 259 262 265 269 274 279 284 291 299 307 313 317 320 322 324 326 329 331 334 337 340 342 345 347 348 348 349 350
281 278 276 274 271 269 265 262 257 253 251 249 248 249 251 253 255 259 262 265 270 274 280 288 296 304 310 314 317 320 322 324 326 329 332 335 338 341 343 345 347 347 348 349
275 273 271 269 265 261 259 256 251 246 244 243 243 244 247 249 252 255 258 262 266 270 277 285 293 301 307 311 314 317 319 321 324 327 330 333 337 340 342 344 346 347 347 348
Height
5860 5857 5855 5852 5848 5844 5840 5835 5831 5825 5819 5812 5804 5796 5787 5778 5768 5757 5746 5734 5722 5709 5695 5682 5668 5654 5639 5625 5609 5594 5578 5562 5546 5530 5514 5498 5482 5467 5452 5437 5422 5407 5391 5376
5855 5852 5849 5847 5844 5840 5835 5830 5826 5820 5814 5807 5800 5791 5783 5774 5764 5753 5742 5730 5717 5704 5691 5677 5663 5649 5635 5620 5605 5590 5574 5559 5543 5527 5512 5496 5481 5467 5452 5437 5422 5408 5393 5378
5849 5846 5844 5842 5839 5835 5831 5826 5821 5815 5810 5803 5796 5787 5778 5770 5760 5749 5738 5726 5713 5700 5687 5673 5659 5645 5631 5616 5601 5586 5571 5556 5541 5525 5510 5495 5481 5467 5452 5438 5424 5410 5395 5381
5841 5840 5838 5839 5833 5829 5826 5821 5815 5810 5804 5797 5790 5782 5773 5764 5755 5744 5733 5722 5709 5696 5683 5669 5655 5641 5627 5613 5598 5583 5568 5554 5539 5523 5509 5494 5480 5467 5453 5439 5426 5412 5398 5384
5833 5831 5831 5831 5826 5821 5818 5816 5809 5804 5798 5791 5784 5777 5769 5760 5750 5740 5729 5718 5706 5693 5680 5666 5652 5638 5624 5609 5595 5581 5566 5552 5537 5522 5508 5494 5480 5467 5453 5440 5427 5414 5401 5387
5824 5822 5822 5824 5818 5813 5811 5808 5803 5797 5791 5784 5777 5770 5763 5754 5745 5735 5724 5713 5702 5689 5676 5663 5649 5634 5621 5607 5593 5579 5565 5550 5536 5522 5508 5494 5480 5467 5453 5440 5428 5415 5402 5389
5814 5812 5813 5813 5808 5804 5802 5799 5794 5788 5783 5777 5770 5763 5756 5747 5739 5729 5719 5709 5697 5685 5673 5659 5646 5632 5618 5604 5591 5577 5563 5549 5535 5521 5508 5494 5481 5468 5454 5441 5428 5416 5404 5392
5805 5804 5807 5802 5799 5795 5792 5789 5785 5780 5775 5770 5763 5756 5749 5741 5733 5724 5714 5704 5693 5681 5669 5656 5643 5629 5615 5602 5589 5575 5562 5549 5535 5522 5508 5495 5482 5468 5455 5442 5430 5418 5407 5396
5796 5798 5797 5793 5789 5785 5782 5779 5775 5771 5767 5762 5756 5749 5742 5735 5727 5718 5709 5699 5689 5677 5666 5653 5640 5626 5613 5600 5586 5573 5560 5547 5534 5521 5508 5496 5483 5470 5457 5445 5433 5422 5411 5400
5785 5788 5786 5782 5778 5775 5772 5769 5765 5762 5758 5753 5747 5741 5735 5728 5720 5712 5703 5694 5684 5673 5662 5650 5637 5624 5610 5597 5584 5571 5559 5546 5533 5520 5507 5495 5483 5471 5460 5448 5437 5425 5414 5403
5774 5777 5774 5771 5768 5764 5761 5758 5754 5751 5747 5743 5738 5733 5727 5720 5713 5706 5697 5688 5679 5669 5658 5646 5634 5621 5608 5595 5582 5570 5557 5544 5532 5519 5506 5494 5482 5472 5460 5449 5438 5427 5416 5406
5762 5764 5759 5759 5757 5753 5750 5747 5744 5740 5737 5733 5728 5723 5718 5712 5705 5699 5691 5682 5673 5664 5653 5642 5630 5618 5606 5593 5580 5568 5556 5543 5531 5518 5505 5493 5481 5470 5459 5449 5439 5428 5417 5407
5749 5748 5744 5744 5743 5740 5737 5735 5733 5729 5726 5722 5718 5714 5709 5703 5697 5691 5683 5676 5667 5658 5648 5638 5627 5615 5603 5590 5578 5566 5554 5542 5530 5518 5506 5494 5482 5470 5459 5449 5439 5429 5420 5410
5733 5730 5726 5728 5727 5726 5724 5722 5720 5718 5715 5711 5707 5703 5698 5693 5688 5682 5675 5668 5660 5652 5643 5633 5622 5611 5599 5588 5576 5564 5552 5541 5529 5518 5506 5494 5483 5472 5462 5451 5441 5431 5422 5413
5716 5711 5707 5709 5711 5712 5710 5708 5706 5705 5704 5700 5696 5692 5688 5683 5678 5672 5667 5660 5653 5645 5637 5627 5618 5607 5596 5585 5573 5562 5551 5540 5529 5517 5506 5495 5483 5472 5462 5452 5442 5433 5423 5414
5693 5689 5688 5689 5692 5694 5694 5693 5692 5691 5690 5687 5684 5680 5676 5671 5667 5662 5657 5651 5645 5638 5630 5622 5613 5603 5592 5581 5570 5559 5548 5538 5527 5517 5506 5494 5483 5472 5462 5452 5443 5434 5425 5416
5666 5667 5667 5668 5671 5674 5675 5676 5675 5675 5674 5672 5670 5665 5662 5659 5656 5651 5647 5642 5636 5630 5623 5615 5607 5598 5587 5577 5567 5556 5546 5536 5526 5515 5505 5494 5483 5472 5462 5452 5444 5435 5427 5419
5643 5645 5646 5646 5649 5653 5656 5657 5657 5657 5656 5655 5653 5650 5648 5646 5643 5640 5636 5632 5627 5621 5615 5608 5600 5592 5582 5573 5563 5552 5543 5533 5523 5514 5503 5493 5482 5471 5461 5452 5443 5435 5427 5419
5624 5625 5626 5626 5628 5630 5634 5636 5636 5636 5636 5636 5635 5634 5633 5632 5630 5627 5624 5621 5616 5612 5607 5601 5593 5585 5577 5567 5558 5549 5539 5530 5521 5511 5502 5491 5481 5471 5461 5451 5443 5435 5427 5419
5606 5607 5607 5607 5608 5609 5612 5614 5615 5616 5618 5618 5618 5619 5618 5617 5615 5613 5611 5609 5605 5602 5598 5592 5585 5578 5570 5562 5553 5544 5535 5526 5518 5509 5499 5490 5480 5470 5460 5450 5442 5434 5426 5419
5587 5586 5585 5586 5588 5590 5591 5592 5593 5596 5598 5599 5600 5601 5601 5601 5600 5599 5598 5597 5593 5591 5588 5583 5577 5571 5563 5555 5547 5539 5531 5522 5514 5506 5497 5488 5478 5468 5458 5449 5441 5433 5426 5419
5567 5566 5565 5565 5567 5570 5571 5572 5574 5576 5578 5580 5581 5583 5584 5584 5584 5584 5584 5583 5581 5579 5576 5573 5568 5562 5556 5549 5541 5534 5526 5518 5510 5502 5494 5485 5476 5467 5457 5448 5440 5432 5425 5418
5547 5545 5544 5544 5545 5548 5550 5551 5553 5556 5559 5561 5563 5565 5566 5567 5568 5569 5570 5569 5568 5568 5566 5562 5559 5554 5548 5541 5535 5528 5521 5513 5506 5499 5491 5482 5474 5465 5455 5446 5438 5431 5424 5417
5525 5524 5523 5523 5523 5525 5528 5530 5533 5536 5539 5542 5545 5547 5549 5551 5553 5554 5555 5555 5556 5556 5554 5552 5549 5544 5539 5534 5528 5521 5515 5508 5501 5494 5487 5479 5471 5462 5453 5445 5437 5429 5422 5416
5503 5502 5502 5501 5502 5504 5506 5509 5512 5516 5520 5524 5527 5529 5532 5535 5538 5539 5541 5542 5543 5543 5542 5541 5538 5535 5530 5526 5520 5515 5509 5503 5496 5490 5483 5476 5468 5460 5451 5443 5435 5427 5421 5414
5480 5480 5480 5481 5482 5484 5486 5489 5492 5496 5501 5505 5509 5512 5516 5519 5522 5525 5527 5529 5531 5531 5531 5530 5528 5525 5521 5517 5513 5508 5503 5497 5491 5485 5479 5472 5465 5457 5449 5441 5433 5426 5419 5413
5457 5458 5459 5461 5463 5465 5468 5471 5474 5478 5482 5487 5492 5496 5500 5504 5507 5511 5514 5516 5518 5519 5519 5519 5518 5516 5512 5509 5505 5501 5496 5491 5486 5480 5474 5468 5461 5454 5446 5439 5431 5424 5417 5411